Home > Time Zones > World Clock > Weather > India > Theni > Past weeks

Flag for India Weather past 2 weeks in Theni, Tamil Nadu, India

Now
75 °F

Scattered clouds.


Feels Like: 77 °F
Forecast: 61 / 89 °F
Wind: 9 mph from Northeast

Location: Coimbatore / Peelamedu

Current Time: Jan 31, 2015 at 10:05:52 AM

Latest Report: Jan 31, 2015 at 9:30 AM


Visibility: 2 mi

Pressure: 30.09 "Hg

Humidity: 69%

Dew point: 64 °F

Location of TheniLocation

Historic Weather in Theni — Graph

°F

Theni temperature yesterday

Maximum temperature yesterday: 84 °F (at 2:30 PM)
Minimum temperature yesterday: 72 °F (at 5:30 AM)
Average temperature yesterday: 78 °F

Past Weeks' High & Low Weather Summary

 TemperatureHumidityPressure
High90 °F (Jan 25, 3:30 PM)94% (Jan 20, 6:30 AM)30.15 "Hg (Jan 20, 6:30 AM)
Low66 °F (Jan 20, 6:30 AM)22% (Jan 22, 5:30 PM)29.86 "Hg (Jan 28, 3:00 PM)
Average78 °F58%30.01 "Hg
* Reported Jan 16 9:00 AM — Jan 31 8:30 AM, Theni, Weather by CustomWeather, © 2014

Note: Actual official high and low records may vary slightly from our data, if they occured in-between our weather recording intervals... More about our weather records

Advertising

Theni weather history for previous 24 hours

 ConditionsComfort  
Time TempWeatherWind HumidityBarometerVisibility
8:30 AM
Jan 31
72 °FFog.6 mph83%30.07 "Hg2 mi
8:00 AM72 °FFog.7 mph83%30.07 "Hg2 mi
7:30 AM72 °FFog.5 mph83%30.07 "Hg2 mi
7:00 AM72 °FFog.5 mph83%30.04 "Hg2 mi
5:30 AM72 °FFog.3 mph83%30.01 "Hg2 mi
4:30 AM72 °FHaze.3 mph83%29.98 "Hg2 mi
4:00 AM73 °FHaze.3 mph78%29.98 "Hg2 mi
3:30 AM73 °FHaze.5 mph78%29.98 "Hg2 mi
3:00 AM73 °FHaze.3 mph78%29.98 "Hg2 mi
2:30 AM73 °FHaze.3 mph78%30.01 "Hg2 mi
1:30 AM73 °FHaze.6 mph74%30.01 "Hg2 mi
12:30 AM75 °FHaze.6 mph69%30.01 "Hg2 mi
11:30 PM
Jan 30
75 °FHaze.7 mph69%30.04 "Hg2 mi
11:00 PM75 °FHaze.7 mph74%30.04 "Hg2 mi
10:30 PM75 °FHaze.3 mph74%30.04 "Hg2 mi
10:00 PM75 °FHaze.5 mph74%30.04 "Hg2 mi
9:30 PM75 °FHaze.5 mph74%30.04 "Hg2 mi
9:00 PM77 °FHaze.No wind69%30.04 "Hg2 mi
8:30 PM77 °FHaze.No wind69%30.04 "Hg2 mi
8:00 PM79 °FHaze.3 mph61%30.01 "Hg2 mi
7:30 PM79 °FHaze.3 mph61%29.98 "Hg3 mi
7:00 PM81 °FHaze.5 mph58%29.98 "Hg3 mi
6:30 PM81 °FHaze.5 mph58%29.98 "Hg3 mi
6:00 PM82 °FHaze.7 mph51%29.98 "Hg3 mi
5:30 PM84 °FHaze.5 mph48%29.95 "Hg3 mi
5:00 PM82 °FHaze.7 mph51%29.95 "Hg3 mi
4:30 PM82 °FHaze.6 mph51%29.95 "Hg3 mi
3:30 PM82 °FScattered clouds.10 mph55%29.98 "Hg2 mi
3:00 PM84 °FBroken clouds.9 mph51%29.98 "Hg2 mi
2:30 PM84 °FBroken clouds.9 mph51%29.98 "Hg2 mi
2:00 PM82 °FBroken clouds.6 mph55%30.01 "Hg2 mi
1:30 PM82 °FBroken clouds.9 mph58%30.01 "Hg2 mi
1:00 PM81 °FBroken clouds.14 mph62%30.04 "Hg2 mi
12:30 PM81 °FBroken clouds.9 mph58%30.04 "Hg2 mi
12:00 PM79 °FBroken clouds.10 mph65%30.07 "Hg2 mi
11:30 AM79 °FBroken clouds.7 mph61%30.07 "Hg2 mi
11:00 AM77 °FBroken clouds.9 mph69%30.07 "Hg2 mi
10:30 AM75 °FBroken clouds.8 mph74%30.07 "Hg2 mi
10:00 AM75 °FBroken clouds.9 mph74%30.07 "Hg2 mi
Weather by CustomWeather, © 2014

See weather overviewHow to use our weather pages